Tracking 27419 objects as of 9-Jun-2023
HD Live streaming from Space Station
objects crossing your sky now

DELTA 1 DEB

Track DELTA 1 DEB now!
10-day predictions


NORAD ID: 8679
Int'l Code: 1975-004G
Perigee: 567.3 km
Apogee: 833.5 km
Inclination: 98.8 °
Period: 98.6 minutes
Semi major axis: 7071 km
RCS: 0.0087 m2 (small)
Launch date: January 22, 1975
Source: United States (US)
Launch site: AIR FORCE WESTERN TEST RANGE (AFWTR)

Note: This is SATELLITE DEBRIS
Your satellite tracking list
Your tracking list is empty




NASA's NSSDC Master Catalog

Two Line Element Set (TLE):
1 08679U 75004G   23159.33779799  .00004100  00000-0  67698-3 0  9994
2 08679  98.7593 300.1354 0188198 323.3254  35.5184 14.59965590479230
Source of the keplerian elements: AFSPC